Weather History for Mercury, NV

Change the Weather History Date:

Monday, February 18, 2013

  Actual Average Record
Temperature  
Mean Temperature 49 °F -  
Max Temperature 61 °F 55 °F 71 °F (2014)
Min Temperature 37 °F 36 °F 30 °F (1998)
Degree Days  
Heating Degree Days 16    
Moisture  
Dew Point 15 °F    
Average Humidity 26    
Maximum Humidity 43    
Minimum Humidity 6    
Precipitation  
Precipitation 0.00 in - - ()
Sea Level Pressure  
Sea Level Pressure 29.90 in    
Wind  
Wind Speed 13 mph (East)    
Max Wind Speed 18 mph    
Max Gust Speed 22 mph    
Visibility 10 miles    
Events      
Averages and records for this station are not official NWS values.
T = Trace of Precipitation, MM = Missing Value Source: NWS Daily Summary

Daily Weather History Graph

Daily Weather History Graph

Search for Another Location

Airport:

Trip Planner

Search our weather history database for the weather conditions in past years. The results will help you decide how hot, cold, wet, or windy it might be!

Date:

Astronomy

Feb. 18, 2013 Rise Set
Actual Time 6:28 AM PST 5:28 PM PST
Civil Twilight 6:02 AM PST 5:54 PM PST
Nautical Twilight 5:31 AM PST 6:24 PM PST
Astronomical Twilight 5:01 AM PST 6:54 PM PST
Moon 11:21 AM PST (2/18) 1:07 AM PST (2/18)
Length of Visible Light 11h 52m
Length of Day
10h 59m
First Quarter, 59% of the Moon is Illuminated
Feb 18
First Quarter
Feb 25
Full
Mar 4
Last Quarter
Mar 11
New
Mar 19
First Quarter

Hourly Weather History & Observations

Time (PST) Temp. Windchill Dew Point Humidity Pressure Visibility Wind Dir Wind Speed Gust Speed Precip Events Conditions
12:52 AM 45.0 °F 38.5 °F 18.0 °F 34% 29.94 in 10.0 mi NNE 13.8 mph - N/A   Clear
1:52 AM 43.0 °F 35.7 °F 18.0 °F 37% 29.94 in 10.0 mi NNE 15.0 mph - N/A   Clear
2:52 AM 43.0 °F 35.7 °F 18.0 °F 37% 29.94 in 10.0 mi NE 15.0 mph - N/A   Clear
3:52 AM 43.0 °F 34.8 °F 18.0 °F 37% 29.94 in 10.0 mi NE 18.4 mph - N/A   Clear
4:52 AM 39.9 °F 31.8 °F 16.0 °F 38% 29.96 in 10.0 mi NE 15.0 mph - N/A   Clear
5:52 AM 37.9 °F 30.5 °F 17.1 °F 43% 30.00 in 10.0 mi NE 11.5 mph - N/A   Clear
6:52 AM 39.0 °F 30.6 °F 16.0 °F 39% 30.01 in 10.0 mi NE 15.0 mph - N/A   Clear
7:52 AM 42.1 °F 34.5 °F 16.0 °F 35% 30.01 in 10.0 mi NE 15.0 mph - N/A   Clear
8:52 AM 48.0 °F - 16.0 °F 28% 30.03 in 10.0 mi NE 6.9 mph - N/A   Clear
9:52 AM 51.1 °F - 15.1 °F 24% 30.02 in 10.0 mi ENE 12.7 mph 17.3 mph N/A   Clear
10:52 AM 53.1 °F - 12.9 °F 20% 29.99 in 10.0 mi ESE 13.8 mph - N/A   Clear
11:52 AM 55.0 °F - 14.0 °F 20% 29.95 in 10.0 mi ESE 15.0 mph 21.9 mph N/A   Clear
12:52 PM 57.0 °F - 14.0 °F 18% 29.91 in 10.0 mi ESE 10.4 mph - N/A   Clear
1:52 PM 57.9 °F - 14.0 °F 18% 29.88 in 10.0 mi ESE 9.2 mph - N/A   Clear
2:52 PM 60.1 °F - 12.0 °F 15% 29.85 in 10.0 mi ESE 11.5 mph - N/A   Clear
3:52 PM 61.0 °F - 12.0 °F 15% 29.82 in 10.0 mi ESE 12.7 mph - N/A   Clear
4:52 PM 57.9 °F - 10.9 °F 16% 29.81 in 10.0 mi ESE 13.8 mph - N/A   Clear
5:52 PM 52.0 °F - 12.9 °F 21% 29.82 in 10.0 mi ESE 12.7 mph - N/A   Clear
6:52 PM 50.0 °F - 14.0 °F 24% 29.82 in 10.0 mi SSE 12.7 mph 18.4 mph N/A   Clear
7:52 PM 48.0 °F - 15.1 °F 27% 29.82 in 10.0 mi ESE 12.7 mph - N/A   Clear
8:52 PM 48.0 °F - 15.1 °F 27% 29.81 in 10.0 mi ESE 6.9 mph - N/A   Clear
9:52 PM 46.0 °F 42.5 °F 15.1 °F 29% 29.81 in 10.0 mi East 6.9 mph - N/A   Clear
10:52 PM 45.0 °F 39.7 °F 15.1 °F 30% 29.79 in 10.0 mi East 10.4 mph - N/A   Clear
11:52 PM 43.0 °F 38.2 °F 15.1 °F 32% 29.78 in 10.0 mi ESE 8.1 mph - N/A   Clear